Location: Newark
(41.6500°N, 71.4833°W)
Time: 20:59:47
(UTC+00:00)

Courier 1B - Pass Details

Date: 26 January 2020
Orbit: 962 x 1209 km, 28.3° (Epoch: 19 February)

Event Time Altitude Azimuth Distance (km) Brightness Sun altitude
Rises 07:48:46 0° 235° (SW) 3,837 - -47.3°
Reaches altitude 10° 07:51:55 10° 223° (SW) 2,925 - -46.7°
Maximum altitude 07:57:41 26° 170° (S) 2,045 - -45.7°
Exits shadow 08:01:46 17° 128° (SE) 2,582 9.9 -45.0°
Drops below altitude 10° 08:03:42 10° 117° (ESE) 3,068 10.5 -44.6°
Sets 08:07:05 0° 105° (ESE) 4,062 11.3 -44.0°
